Location: Benefeld
(52.9040°N, 9.6316°E)
Time: 05:18:39
(UTC+00:00)

Daily predictions for brighter satellites

Satellite Brightness Start Highest point End
(mag) Time Altitude Azimuth Time Altitude Azimuth Time Altitude Azimuth
Cosmos 1726 Rocket 4.0 00:07:11 47° E 00:07:12 47° E 00:11:16 10° NNE
Cosmos 1331 Rocket 4.3 00:06:53 50° WSW 00:07:56 61° WNW 00:13:09 10° NNE
Cosmos 1536 4.2 00:08:37 10° N 00:11:49 28° ENE 00:12:17 27° E
DELTA 2 DEB (DPAF) 4.1 00:09:02 10° NNE 00:11:57 56° NNE 00:11:57 56° NNE
ATLAS 2AS CENTAUR R/B 2.8 00:09:45 35° WSW 00:12:54 76° NW 00:19:45 10° NE
IDEFIX/ARIANE 42P 4.1 00:10:39 10° NE 00:14:59 26° E 00:16:41 22° ESE
Cosmos 1900 4.5 00:17:30 55° WSW 00:18:26 68° NW 00:23:23 10° NE
Meteor 1-5 Rocket 4.1 00:14:49 10° NNW 00:20:10 68° W 00:20:58 59° SW
Cosmos 1953 Rocket 3.6 00:17:26 10° N 00:21:55 73° ENE 00:22:18 68° ESE
Cosmos 1980 Rocket 2.6 00:18:48 10° NW 00:24:11 44° WSW 00:24:19 44° WSW
Cosmos 1766 4.2 00:21:40 10° N 00:24:17 35° NE 00:24:17 35° NE
USA 234 3.5 00:20:22 10° E 00:26:51 69° NNE 00:33:22 10° WNW
Cosmos 44 Rocket 4.1 00:29:47 38° SE 00:30:12 39° ESE 00:34:59 10° NE
Cosmos 1707 4.2 00:31:24 22° ENE 00:31:24 22° ENE 00:33:04 10° NE
Cosmos 1825 Rocket 3.8 00:28:23 10° NNW 00:32:19 54° W 00:32:19 54° W
COSMOS 2406 4.2 00:32:29 31° SE 00:34:02 37° ESE 00:39:15 10° NE
Meteor 2-10 4.2 00:29:43 10° NNW 00:35:06 60° W 00:36:02 52° SW
Cosmos 2369 3.7 00:29:57 10° NW 00:35:34 63° WSW 00:36:37 53° SSW
Cosmos 1634 Rocket 4.1 00:35:56 40° SSE 00:38:12 67° E 00:44:18 10° NNE
CZ-4C R/B 4.3 00:38:12 10° N 00:40:24 30° NW 00:40:24 30° NW
Cosmos 2084 3.2 00:46:23 80° W 00:46:35 85° NW 00:50:45 10° NE
Spot 1 3.9 00:42:37 10° NNE 00:46:45 78° ESE 00:47:07 71° SSE
Cosmos 1607 4.3 00:47:22 39° SSE 00:49:09 51° ESE 00:55:11 10° NE
Cosmos 2360 Rocket 3.0 00:45:49 10° NNW 00:51:22 51° NE 00:56:53 10° SE
Cosmos 2333 Rocket 2.3 00:46:47 10° NNW 00:52:30 76° ENE 00:57:05 16° SE
Cosmos-2242 2.9 00:52:12 65° SSE 00:52:41 74° E 00:56:52 10° NNE
USA 281 3.1 00:51:27 22° SSE 00:56:02 87° WSW 01:02:41 10° NNW
Cosmos 2082 Rocket 2.2 00:59:24 45° SW 01:01:16 85° WNW 01:07:03 10° NNE
Cosmos 1842 4.0 01:02:44 33° E 01:02:49 33° E 01:05:45 10° NNE
Cosmos 1833 Rocket 4.2 01:00:04 16° W 01:03:34 29° NW 01:08:25 10° NNE
Meteor 2-2 Rocket 4.2 01:02:52 41° S 01:04:56 80° E 01:10:36 10° NNE
Cosmos 2278 3.7 01:00:31 10° NNW 01:06:17 85° ENE 01:11:11 15° SSE
Cosmos 2322 Rocket 2.5 01:01:07 10° NNW 01:06:45 66° NE 01:12:22 10° SE
Cosmos 2279 Rocket 4.1 01:03:59 34° S 01:06:52 75° E 01:13:07 10° NNE
Cosmos 1486 Rocket 3.9 01:01:47 10° NNW 01:07:02 86° WSW 01:09:36 31° SSE
NPP 4.2 01:02:11 10° NNE 01:07:28 52° E 01:09:57 29° SSE
Resurs 1-4 Rocket 4.0 01:03:51 10° NE 01:08:00 23° E 01:12:07 10° SE
Cosmos 1867 4.3 01:06:15 26° W 01:09:00 49° NW 01:14:19 10° NE
Cosmos 2221 3.6 01:07:40 26° SE 01:09:13 35° E 01:13:00 10° NNE
ACS3 Solar Sail 1.9 01:10:03 10° N 01:16:01 66° WNW 01:18:33 36° SW
NOSS 3-3 (A) 4.2 01:14:12 35° S 01:16:03 50° SE 01:22:03 10° NE
Cosmos 1777 Rocket 3.9 01:12:23 10° NNW 01:17:41 82° WSW 01:20:41 26° SSE
Cosmos 2219 Rocket 3.0 01:15:10 10° NNW 01:20:41 53° NE 01:26:12 10° SE
SL-16 R/B 2.1 01:16:10 10° NW 01:21:48 65° WSW 01:24:53 27° S
H-2A R/B 4.1 01:18:48 10° NE 01:22:39 21° E 01:26:32 10° SE
GP-B 3.6 01:18:42 10° N 01:22:48 41° W 01:23:25 38° WSW
Meteor 1-11 Rocket 4.4 01:17:05 10° N 01:22:56 58° ENE 01:28:38 10° SSE
CZ-4C R/B 1.9 01:22:06 42° WSW 01:23:41 78° NW 01:29:30 10° NE
Cosmos 1271 Rocket 3.5 01:27:38 32° SE 01:28:37 40° E 01:31:53 10° NNE
Meteor 1-14 Rocket 4.2 01:23:07 10° NNW 01:28:54 88° W 01:32:37 23° S
ATLAS 3B R/B 4.0 01:23:24 10° WNW 01:29:03 23° WSW 01:29:24 23° WSW
SL-4 R/B 3.0 01:31:35 28° SSE 01:31:35 28° SSE 01:33:39 10° SE
USA 267 4.1 01:24:49 10° ENE 01:30:50 37° SE 01:34:01 24° S
NOSS 3-3 (C) 4.1 01:30:27 32° S 01:32:46 54° SE 01:38:56 10° NE
Cosmos 2058 Rocket 3.3 01:32:04 42° WSW 01:33:10 53° WNW 01:37:30 10° N
Cosmos 2266 Rocket 3.9 01:28:18 10° N 01:34:29 88° E 01:39:09 18° S
Cosmos 1470 2.1 01:32:37 10° NNW 01:35:58 76° W 01:36:16 68° SSW
Gbstr 26 Del rocket 3.1 01:37:23 41° SSE 01:37:23 41° SSE 01:40:17 10° SE
KORONAS-FOTON 3.5 01:38:28 57° W 01:38:42 60° WNW 01:42:02 10° N
USA 290 4.3 01:37:48 16° SE 01:38:56 20° ESE 01:41:18 10° NE
Cosmos 909 Rocket 4.2 01:37:59 27° WSW 01:41:32 67° NW 01:48:03 10° NE
Cosmos 1536 3.7 01:43:52 10° NNW 01:46:48 27° W 01:46:48 27° W
Cosmos 2333 4.1 01:41:36 10° NNW 01:47:18 87° WSW 01:53:01 10° SSE
Cosmos 1655 Rocket 4.4 01:43:20 10° N 01:49:33 63° ENE 01:55:42 10° SSE
DMSP B5D2-2 4.0 01:45:24 12° SSE 01:50:17 86° ENE 01:55:31 10° NNW
Cosmos 1812 Rocket 3.6 01:49:34 27° S 01:51:49 73° E 01:56:10 10° NNE
NOSS 3-4 (A) 3.8 01:45:37 10° NW 01:52:09 88° NE 01:59:54 10° SE
Meteor 2-6 Rocket 4.3 01:49:05 28° SSW 01:52:12 71° WNW 01:58:08 10° N
NOSS 3-4 (C) 3.8 01:46:09 10° NW 01:52:42 88° NE 02:00:29 10° SE
IDEFIX/ARIANE 42P 2.8 01:49:42 10° N 01:54:47 58° WNW 01:57:22 28° SW
COSMOS 2441 4.3 01:52:04 10° NNE 01:56:53 82° ESE 01:59:44 24° SSW
Envisat 3.5 01:52:25 10° NNE 01:57:27 57° ESE 02:01:23 16° S
Aureole 1 Rocket 3.2 01:54:42 10° NNW 01:58:42 74° ENE 02:03:42 10° SSE
Cosmos 2084 Rocket 3.3 01:58:24 10° NW 02:02:32 59° SW 02:06:42 10° SSE
Cosmos 1707 3.9 02:03:05 19° WNW 02:03:05 19° WNW 02:05:09 10° NNW
SWARM C 4.5 02:01:26 10° N 02:04:41 79° E 02:06:24 26° S
ATLAS 2AS CENTAUR R/B 3.9 01:58:25 10° W 02:04:46 37° NNW 02:11:02 10° NE
SWARM A 4.4 02:01:31 10° N 02:04:46 66° E 02:06:47 21° SSE
Iridium 4 Rocket 3.4 02:03:00 19° S 02:06:26 85° E 02:11:36 10° N
MOZ.5/SAFIR/RUBIN 5/SL-8 3.9 02:05:32 23° SSW 02:08:14 52° W 02:12:48 10° NNW
Meteor 1-27 Rocket 4.3 02:03:31 11° S 02:09:07 60° E 02:14:56 10° NNE
H-2A R/B 2.0 02:06:25 15° SSE 02:09:23 88° W 02:12:59 10° NNW
Cosmos 1975 3.1 02:06:13 10° NNW 02:09:39 39° W 02:10:35 32° SW
USA 234 3.2 02:03:22 10° SE 02:09:55 72° SSW 02:16:29 10° WNW
Cosmos 990 Rocket 4.0 02:05:16 10° NNW 02:10:19 57° WSW 02:15:20 10° S
ADEOS II 3.0 02:05:54 10° NNE 02:10:56 45° E 02:15:57 10° S
Cosmos 44 Rocket 3.9 02:08:21 22° WSW 02:11:32 53° NW 02:16:39 10° NE
ALOS 2.6 02:11:02 10° NNE 02:15:35 61° ESE 02:19:30 13° S
MSX 4.4 02:10:45 10° N 02:16:12 45° WNW 02:19:47 21° SW
Cosmos 1763 Rocket 3.5 02:13:16 22° SSW 02:16:47 89° ESE 02:22:07 10° NNE
Cosmos 1238 Rocket 3.0 02:15:06 18° SSE 02:16:58 45° E 02:19:54 10° NNE
COSMOS 2406 3.7 02:14:30 21° WSW 02:18:12 52° NW 02:23:50 10° NNE
CZ-2D R/B 2.4 02:14:21 10° NNE 02:19:36 69° ESE 02:24:33 12° S
COSMOS 2428 3.6 02:14:06 10° NNW 02:19:42 53° NE 02:25:16 10° SE
SL-16 R/B 3.5 02:16:04 10° SE 02:22:05 52° ENE 02:28:09 10° N
ADEOS Rocket 3.7 02:15:01 10° NNE 02:22:27 68° WNW 02:28:50 16° SW
Sich 1 4.4 02:20:30 10° N 02:24:26 39° ENE 02:28:20 10° SE
Cosmos 1898 Rocket 3.6 02:23:16 10° NNW 02:28:28 78° ENE 02:33:37 10° SSE
Spot 2 4.3 02:24:24 10° S 02:29:12 70° WSW 02:34:11 10° NNW
Cosmos 1354 Rocket 4.5 02:27:49 10° NW 02:32:43 40° WSW 02:37:35 10° S
Cosmos 1937 Rocket 3.9 02:27:48 10° NNW 02:33:00 65° ENE 02:38:08 10° SE
FENGYUN 3A 4.3 02:29:25 10° N 02:34:29 40° WNW 02:38:14 17° SW
Cosmos 2360 Rocket 2.7 02:30:03 10° NW 02:35:13 37° WSW 02:40:21 10° S
Cosmos 2333 Rocket 3.3 02:31:51 10° NW 02:36:13 23° WSW 02:38:59 16° SW
Cosmos 1607 4.5 02:31:28 15° WSW 02:36:28 52° NW 02:42:37 10° NE
Alouette 2 Rocket 3.3 02:32:55 10° NNW 02:37:11 64° W 02:40:43 10° S
USA 305 1.5 02:38:24 24° WNW 02:39:14 42° N 02:40:29 10° ENE
EP 1 4.5 02:37:01 10° WNW 02:39:30 43° SW 02:42:09 10° SSE
USA 281 4.3 02:38:17 16° SW 02:41:23 22° W 02:46:21 10° NW
Meteor 2-10 Rocket 3.7 02:37:34 10° N 02:42:40 77° ENE 02:47:55 10° SSE
H-2A R/B 3.8 02:40:53 10° NE 02:44:25 28° E 02:47:51 10° SSE
Cosmos 540 Rocket 3.6 02:41:19 16° SW 02:45:20 64° WNW 02:50:29 10° NNE
Cosmos 2082 Rocket 3.8 02:41:30 10° W 02:46:11 25° NW 02:50:54 10° NNE
Cosmos 2221 3.6 02:43:58 17° WSW 02:46:19 28° WNW 02:49:54 10° N
Resurs 1-4 Rocket 2.2 02:42:58 10° NNE 02:48:16 69° WNW 02:53:19 11° SSW
Cosmos 1553 Rocket 4.4 02:42:29 10° S 02:48:36 65° E 02:54:51 10° NNE
Cosmos 2322 Rocket 3.1 02:45:42 10° NW 02:50:22 27° WSW 02:55:01 10° SSW
Cosmos 468 Rocket 4.0 02:46:38 12° SSW 02:51:36 90° SSW 02:56:56 10° NNE
BREEZE-M DEB (TANK) 3.5 02:50:12 14° WSW 02:52:36 48° S 03:00:25 10° ESE
Cosmos 1766 Rocket 3.8 02:52:03 10° NNW 02:56:13 45° W 03:00:20 10° SSW
ACS3 Solar Sail 3.6 02:53:46 10° NNW 02:57:24 17° NW 03:01:03 10° W
Cosmos 1833 4.2 02:53:59 12° SW 02:59:16 78° WNW 03:04:59 10° NNE
H-2A R/B 2.1 02:57:21 10° NNE 03:02:27 72° WNW 03:07:39 10° SSW
Cosmos 1271 Rocket 4.2 03:01:02 12° WSW 03:03:02 19° WNW 03:05:35 10° NNW
Cosmos 2219 Rocket 2.8 02:59:23 10° NW 03:04:27 35° WSW 03:09:31 10° S
Cosmos 2237 Rocket 3.3 02:59:09 10° NNW 03:04:44 51° NE 03:10:15 10° SE
SL-16 R/B 3.9 03:02:28 10° WNW 03:04:47 13° W 03:06:38 11° WSW
CRYOSAT 2 4.4 03:00:07 10° S 03:04:57 62° W 03:09:49 10° N
RESURS DK-1 3.7 03:02:06 10° NNW 03:05:55 43° NE 03:09:44 10° ESE
Cosmos 44 4.1 03:00:41 10° NW 03:06:06 64° NE 03:11:24 10° ESE
SL-4 R/B 3.5 03:05:08 12° WSW 03:06:41 15° SW 03:08:54 10° S
NOSS 3-3 (A) 4.4 03:01:35 10° WSW 03:06:54 52° NNW 03:13:31 10° NE
SL-14 R/B 3.9 03:06:08 10° S 03:09:56 57° E 03:13:47 10° NNE
CZ-4C R/B 3.5 03:08:12 10° WNW 03:12:46 34° NNW 03:18:36 10° NE
USA 290 3.1 03:10:18 12° WSW 03:12:53 34° WNW 03:15:50 10° N
ARGOS 3.4 03:08:01 10° NNE 03:13:26 73° ESE 03:18:47 10° S
USA 267 3.3 03:07:47 10° ENE 03:14:23 85° SSE 03:20:58 10° WSW
Cosmos 1408 Rocket 3.8 03:10:08 10° N 03:14:27 74° E 03:18:42 10° SSE
Cosmos 1745 Rocket 4.2 03:08:52 10° N 03:15:05 76° ENE 03:21:13 10° SSE
METEOR-M 4.1 03:10:42 10° NNE 03:16:03 79° WNW 03:21:23 10° SSW
Gbstr 26 Del rocket 4.4 03:20:11 10° WSW 03:22:11 14° SW 03:24:11 10° S
Cosmos 2322 3.8 03:19:22 10° NW 03:24:59 59° WSW 03:30:33 10° SSE
